Flag for Spain Weather past 2 weeks in Sevilla, Spain

Now
59 °F

Overcast.


Feels Like: 55 °F
Forecast: 42 / 57 °F
Wind: 20 mph from Southwest

Location: Sevilla / San Pablo

Current Time: Jan 31, 2015 at 2:47:07 AM

Latest Report: Jan 31, 2015 at 1:00 AM


Visibility: N/A

Pressure: 29.80 "Hg

Humidity: 82%

Dew point: 54 °F

Location of SevillaLocation

Historic Weather in Sevilla — Graph

°F

Sevilla temperature yesterday

Maximum temperature yesterday: 64 °F (at 3:30 PM)
Minimum temperature yesterday: 55 °F (at 3:30 AM)
Average temperature yesterday: 59 °F

Past Weeks' High & Low Weather Summary

 TemperatureHumidityPressure
High66 °F (Jan 27, 5:30 PM)100% (Jan 17, 3:30 AM)30.39 "Hg (Jan 17, 3:30 AM)
Low34 °F (Jan 20, 6:30 AM)27% (Jan 26, 3:00 PM)29.68 "Hg (Jan 19, 3:30 AM)
Average49 °F76%30.14 "Hg
* Reported Jan 16 1:00 AM — Jan 31 1:00 AM, Sevilla, Weather by CustomWeather, © 2014

Note: Actual official high and low records may vary slightly from our data, if they occured in-between our weather recording intervals... More about our weather records

Advertising

Sevilla weather history for previous 24 hours

 ConditionsComfort  
Time TempWeatherWind HumidityBarometerVisibility
1:00 AM
Jan 31
59 °FOvercast.20 mph82%29.80 "HgN/A
12:30 AM59 °FOvercast.18 mph82%29.80 "HgN/A
12:00 AM59 °FOvercast.18 mph82%29.80 "HgN/A
11:30 PM
Jan 30
59 °FPassing clouds.20 mph82%29.80 "HgN/A
11:00 PM59 °FPassing clouds.18 mph82%29.83 "HgN/A
10:30 PM59 °FPassing clouds.21 mph82%29.83 "HgN/A
10:00 PM59 °FPassing clouds.18 mph82%29.83 "HgN/A
9:30 PM59 °FPassing clouds.17 mph82%29.83 "HgN/A
9:00 PM59 °FPassing clouds.21 mph82%29.83 "HgN/A
8:30 PM61 °FPassing clouds.23 mph77%29.83 "HgN/A
8:00 PM61 °FPassing clouds.20 mph77%29.83 "HgN/A
7:30 PM61 °FPassing clouds.16 mph77%29.83 "HgN/A
7:00 PM61 °FPassing clouds.21 mph77%29.83 "HgN/A
6:30 PM61 °FPartly sunny.17 mph77%29.83 "HgN/A
6:00 PM63 °FPartly sunny.15 mph73%29.86 "HgN/A
5:30 PM63 °FPassing clouds.21 mph73%29.86 "HgN/A
5:00 PM63 °FScattered clouds.17 mph73%29.86 "HgN/A
4:30 PM63 °FPassing clouds.22 mph73%29.86 "HgN/A
4:00 PM63 °FPassing clouds.25 mph73%29.86 "HgN/A
3:30 PM64 °FPassing clouds.23 mph73%29.86 "HgN/A
3:00 PM63 °FPartly sunny.21 mph77%29.89 "HgN/A
2:30 PM63 °FBroken clouds.17 mph73%29.92 "HgN/A
2:00 PM63 °FPartly sunny.20 mph73%29.92 "HgN/A
1:30 PM63 °FScattered clouds.21 mph73%29.95 "HgN/A
1:00 PM63 °FScattered clouds.21 mph73%29.95 "HgN/A
12:30 PM63 °FScattered clouds.15 mph73%29.95 "HgN/A
12:00 PM61 °FScattered clouds.18 mph77%29.98 "HgN/A
11:30 AM61 °FPassing clouds.16 mph77%29.98 "HgN/A
11:00 AM63 °FPassing clouds.15 mph73%29.98 "HgN/A
10:30 AM59 °FPassing clouds.12 mph82%29.98 "HgN/A
10:00 AM57 °FScattered clouds.10 mph88%29.98 "HgN/A
9:30 AM55 °FScattered clouds.9 mph94%29.98 "HgN/A
9:00 AM55 °FPartly sunny.12 mph94%29.98 "HgN/A
8:30 AM55 °FScattered clouds.15 mph94%29.98 "HgN/A
8:00 AM55 °FPartly cloudy.15 mph94%29.98 "HgN/A
7:30 AM55 °FPassing clouds.12 mph94%29.98 "HgN/A
7:00 AM55 °FPassing clouds.12 mph94%29.98 "HgN/A
6:30 AM55 °FPassing clouds.12 mph94%29.98 "HgN/A
6:00 AM55 °FPassing clouds.12 mph88%29.98 "HgN/A
5:30 AM55 °FPassing clouds.14 mph88%29.98 "HgN/A
5:00 AM55 °FPassing clouds.10 mph88%29.98 "HgN/A
4:30 AM55 °FPassing clouds.10 mph88%30.01 "HgN/A
4:00 AM55 °FPassing clouds.10 mph88%30.01 "HgN/A
3:30 AM55 °FPassing clouds.10 mph88%30.01 "HgN/A
Weather by CustomWeather, © 2014

See weather overviewHow to use our weather pages